sat.trackr.live / text

‹ back to catalog

STARLINK-31577

NORAD 59203 · 2024-046C

PAYLOAD ACTIVE UNKNOWN

§ Identity

Operator
Country
US
Launch date
2024-03-11
Launch site
AFWTR
Launch vehicle
Mass (kg)
RCS (m²)

Purposes: comms

External: N2YO · Heavens-Above · Gunter

§ Orbital elements

Epoch: 2026-05-25T04:00:03.998880Z

Period
93.85 min
Inclination
53.1587°
Eccentricity
0.0001201
Mean motion
15.34405458 rev/d
Perigee alt
461.9 km
Apogee alt
463.5 km
Semi-major
6,840.8 km
B*
-5.5821e-4
RAAN
158.8512°
Arg perigee
83.4432°
Mean anomaly
14.4274°
Rev number
586

§ Raw data

STARLINK-315771 59203U 24046C   26145.16671295 -.00019192  00000+0 -55821-3 0  99972 59203  53.1587 158.8512 0001201  83.4432  14.4274 15.34405458  5868

JSON: /api/v1/satellites/59203 · /tle

For live sub-satellite position, see the globe view (requires WebGL).

§ Visibility from observer

Set your observer location to see the next 7 days of passes ≥ 10°. The values pass through the URL so the page stays shareable.

No JS? Fill the form by hand. The geolocation button needs JavaScript.